Year,Month,Day,Hour,Minute,Value (Times are PST for temperature in C)
2013,09,18,00,00,11.60
2013,09,18,00,01,11.60
2013,09,18,00,02,11.60
2013,09,18,00,03,11.60
2013,09,18,00,04,11.60
2013,09,18,00,05,11.60
2013,09,18,00,06,11.60
2013,09,18,00,07,11.60
2013,09,18,00,08,11.60
2013,09,18,00,09,11.60
2013,09,18,00,10,11.60
2013,09,18,00,11,11.50
2013,09,18,00,12,11.50
2013,09,18,00,13,11.50
2013,09,18,00,14,11.50
2013,09,18,00,15,11.50
2013,09,18,00,16,11.50
2013,09,18,00,17,11.40
2013,09,18,00,18,11.40
2013,09,18,00,19,11.40
2013,09,18,00,20,11.40
2013,09,18,00,21,11.40
2013,09,18,00,22,11.40
2013,09,18,00,23,11.40
2013,09,18,00,24,11.40
2013,09,18,00,25,11.40
2013,09,18,00,26,11.40
2013,09,18,00,27,11.40
2013,09,18,00,28,11.40
2013,09,18,00,29,11.40
2013,09,18,00,30,11.40
2013,09,18,00,31,11.40
2013,09,18,00,32,11.30
2013,09,18,00,33,11.30
2013,09,18,00,34,11.30
2013,09,18,00,35,11.30
2013,09,18,00,36,11.30
2013,09,18,00,37,11.30
2013,09,18,00,38,11.30
2013,09,18,00,39,11.30
2013,09,18,00,40,11.30
2013,09,18,00,41,11.30
2013,09,18,00,42,11.30
2013,09,18,00,43,11.30
2013,09,18,00,44,11.30
2013,09,18,00,45,11.30
2013,09,18,00,46,11.30
2013,09,18,00,47,11.30
2013,09,18,00,48,11.30
2013,09,18,00,49,11.30
2013,09,18,00,50,11.30
2013,09,18,00,51,11.30
2013,09,18,00,52,11.30
2013,09,18,00,53,11.30
2013,09,18,00,54,11.30
2013,09,18,00,55,11.30
2013,09,18,00,56,11.30
2013,09,18,00,57,11.30
2013,09,18,00,58,11.30
2013,09,18,00,59,11.30
2013,09,18,01,00,11.30
2013,09,18,01,01,11.30
2013,09,18,01,02,11.30
2013,09,18,01,03,11.30
2013,09,18,01,04,11.30
2013,09,18,01,05,11.20
2013,09,18,01,06,11.20
2013,09,18,01,07,11.20
2013,09,18,01,08,11.20
2013,09,18,01,09,11.20
2013,09,18,01,10,11.20
2013,09,18,01,11,11.20
2013,09,18,01,12,11.20
2013,09,18,01,13,11.20
2013,09,18,01,14,11.20
2013,09,18,01,15,11.20
2013,09,18,01,16,11.20
2013,09,18,01,17,11.20
2013,09,18,01,18,11.20
2013,09,18,01,19,11.20
2013,09,18,01,20,11.20
2013,09,18,01,21,11.20
2013,09,18,01,22,11.20
2013,09,18,01,23,11.20
2013,09,18,01,24,11.20
2013,09,18,01,25,11.20
2013,09,18,01,26,11.20
2013,09,18,01,27,11.20
2013,09,18,01,28,11.30
2013,09,18,01,29,11.30
2013,09,18,01,30,11.30
2013,09,18,01,31,11.30
2013,09,18,01,32,11.30
2013,09,18,01,33,11.30
2013,09,18,01,34,11.30
2013,09,18,01,35,11.30
2013,09,18,01,36,11.30
2013,09,18,01,37,11.30
2013,09,18,01,38,11.30
2013,09,18,01,39,11.30
2013,09,18,01,40,11.30
2013,09,18,01,41,11.30
2013,09,18,01,42,11.30
2013,09,18,01,43,11.30
2013,09,18,01,44,11.30
2013,09,18,01,49,11.30
2013,09,18,01,50,11.30
2013,09,18,01,51,11.30
2013,09,18,01,52,11.30
2013,09,18,01,53,11.30
2013,09,18,01,54,11.30
2013,09,18,01,55,11.30
2013,09,18,01,56,11.30
2013,09,18,01,57,11.30
2013,09,18,01,58,11.30
2013,09,18,01,59,11.30
2013,09,18,02,00,11.20
2013,09,18,02,01,11.20
2013,09,18,02,02,11.20
2013,09,18,02,03,11.20
2013,09,18,02,04,11.20
2013,09,18,02,05,11.20
2013,09,18,02,06,11.20
2013,09,18,02,07,11.20
2013,09,18,02,08,11.20
2013,09,18,02,09,11.20
2013,09,18,02,10,11.20
2013,09,18,02,11,11.20
2013,09,18,02,12,11.20
2013,09,18,02,13,11.20
2013,09,18,02,14,11.20
2013,09,18,02,15,11.10
2013,09,18,02,16,11.10
2013,09,18,02,17,11.10
2013,09,18,02,18,11.10
2013,09,18,02,19,11.10
2013,09,18,02,20,11.10
2013,09,18,02,21,11.00
2013,09,18,02,22,11.00
2013,09,18,02,23,11.00
2013,09,18,02,24,11.00
2013,09,18,02,25,10.90
2013,09,18,02,26,10.90
2013,09,18,02,27,10.90
2013,09,18,02,28,10.90
2013,09,18,02,29,10.90
2013,09,18,02,30,10.90
2013,09,18,02,31,10.90
2013,09,18,02,32,10.90
2013,09,18,02,33,10.90
2013,09,18,02,34,10.90
2013,09,18,02,35,10.90
2013,09,18,02,36,10.90
2013,09,18,02,37,10.90
2013,09,18,02,38,10.90
2013,09,18,02,39,10.80
2013,09,18,02,40,10.80
2013,09,18,02,41,10.80
2013,09,18,02,42,10.80
2013,09,18,02,43,10.80
2013,09,18,02,44,10.80
2013,09,18,02,45,10.80
2013,09,18,02,46,10.80
2013,09,18,02,47,10.80
2013,09,18,02,48,10.80
2013,09,18,02,49,10.80
2013,09,18,02,50,10.80
2013,09,18,02,51,10.80
2013,09,18,02,52,10.80
2013,09,18,02,53,10.80
2013,09,18,02,54,10.80
2013,09,18,02,55,10.80
2013,09,18,02,56,10.80
2013,09,18,02,57,10.80
2013,09,18,02,58,10.80
2013,09,18,02,59,10.80
2013,09,18,03,00,10.80
2013,09,18,03,01,10.80
2013,09,18,03,02,10.80
2013,09,18,03,03,10.80
2013,09,18,03,04,10.80
2013,09,18,03,05,10.80
2013,09,18,03,06,10.80
2013,09,18,03,07,10.80
2013,09,18,03,08,10.80
2013,09,18,03,09,10.80
2013,09,18,03,10,10.80
2013,09,18,03,11,10.80
2013,09,18,03,12,10.80
2013,09,18,03,13,10.80
2013,09,18,03,14,10.80
2013,09,18,03,15,10.80
2013,09,18,03,16,10.80
2013,09,18,03,17,10.80
2013,09,18,03,18,10.80
2013,09,18,03,19,10.80
2013,09,18,03,20,10.80
2013,09,18,03,21,10.80
2013,09,18,03,22,10.80
2013,09,18,03,23,10.80
2013,09,18,03,24,10.80
2013,09,18,03,25,10.80
2013,09,18,03,26,10.80
2013,09,18,03,27,10.80
2013,09,18,03,28,10.80
2013,09,18,03,29,10.80
2013,09,18,03,30,10.80
2013,09,18,03,31,10.80
2013,09,18,03,32,10.80
2013,09,18,03,33,10.80
2013,09,18,03,34,10.80
2013,09,18,03,35,10.80
2013,09,18,03,36,10.80
2013,09,18,03,37,10.80
2013,09,18,03,38,10.80
2013,09,18,03,39,10.80
2013,09,18,03,40,10.80
2013,09,18,03,41,10.80
2013,09,18,03,42,10.80
2013,09,18,03,43,10.80
2013,09,18,03,44,10.80
2013,09,18,03,45,10.80
2013,09,18,03,46,10.80
2013,09,18,03,47,10.80
2013,09,18,03,48,10.80
2013,09,18,03,49,10.80
2013,09,18,03,50,10.80
2013,09,18,03,51,10.80
2013,09,18,03,52,10.80
2013,09,18,03,53,10.80
2013,09,18,03,54,10.80
2013,09,18,03,55,10.80
2013,09,18,03,56,10.80
2013,09,18,03,57,10.80
2013,09,18,03,58,10.80
2013,09,18,03,59,10.80
2013,09,18,04,00,10.80
2013,09,18,04,01,10.80
2013,09,18,04,02,10.80
2013,09,18,04,03,10.80
2013,09,18,04,04,10.80
2013,09,18,04,05,10.80
2013,09,18,04,06,10.80
2013,09,18,04,07,10.80
2013,09,18,04,08,10.80
2013,09,18,04,09,10.80
2013,09,18,04,10,10.80
2013,09,18,04,11,10.80
2013,09,18,04,12,10.80
2013,09,18,04,13,10.80
2013,09,18,04,14,10.80
2013,09,18,04,15,10.80
2013,09,18,04,16,10.80
2013,09,18,04,17,10.80
2013,09,18,04,18,10.80
2013,09,18,04,19,10.80
2013,09,18,04,20,10.80
2013,09,18,04,21,10.80
2013,09,18,04,22,10.80
2013,09,18,04,23,10.80
2013,09,18,04,24,10.80
2013,09,18,04,25,10.80
2013,09,18,04,26,10.80
2013,09,18,04,27,10.80
2013,09,18,04,28,10.80
2013,09,18,04,29,10.80
2013,09,18,04,30,10.80
2013,09,18,04,31,10.80
2013,09,18,04,32,10.80
2013,09,18,04,33,10.80
2013,09,18,04,34,10.80
2013,09,18,04,35,10.70
2013,09,18,04,36,10.70
2013,09,18,04,37,10.70
2013,09,18,04,38,10.70
2013,09,18,04,39,10.70
2013,09,18,04,40,10.70
2013,09,18,04,41,10.70
2013,09,18,04,42,10.70
2013,09,18,04,43,10.70
2013,09,18,04,44,10.70
2013,09,18,04,45,10.70
2013,09,18,04,46,10.70
2013,09,18,04,47,10.70
2013,09,18,04,48,10.70
2013,09,18,04,49,10.60
2013,09,18,04,50,10.60
2013,09,18,04,51,10.60
2013,09,18,04,52,10.60
2013,09,18,04,53,10.60
2013,09,18,04,54,10.60
2013,09,18,04,55,10.60
2013,09,18,04,56,10.60
2013,09,18,04,57,10.60
2013,09,18,04,58,10.60
2013,09,18,04,59,10.60
2013,09,18,05,00,10.60
2013,09,18,05,01,10.60
2013,09,18,05,02,10.60
2013,09,18,05,03,10.60
2013,09,18,05,04,10.60
2013,09,18,05,05,10.50
2013,09,18,05,06,10.50
2013,09,18,05,07,10.50
2013,09,18,05,08,10.50
2013,09,18,05,09,10.50
2013,09,18,05,10,10.50
2013,09,18,05,11,10.50
2013,09,18,05,12,10.50
2013,09,18,05,13,10.40
2013,09,18,05,14,10.40
2013,09,18,05,15,10.40
2013,09,18,05,16,10.40
2013,09,18,05,17,10.40
2013,09,18,05,18,10.40
2013,09,18,05,19,10.40
2013,09,18,05,20,10.40
2013,09,18,05,21,10.40
2013,09,18,05,22,10.40
2013,09,18,05,23,10.40
2013,09,18,05,24,10.30
2013,09,18,05,25,10.30
2013,09,18,05,26,10.30
2013,09,18,05,27,10.30
2013,09,18,05,28,10.30
2013,09,18,05,29,10.30
2013,09,18,05,30,10.30
2013,09,18,05,31,10.30
2013,09,18,05,32,10.30
2013,09,18,05,33,10.30
2013,09,18,05,34,10.30
2013,09,18,05,35,10.30
2013,09,18,05,36,10.30
2013,09,18,05,37,10.30
2013,09,18,05,38,10.20
2013,09,18,05,39,10.20
2013,09,18,05,40,10.20
2013,09,18,05,41,10.20
2013,09,18,05,42,10.20
2013,09,18,05,43,10.20
2013,09,18,05,44,10.20
2013,09,18,05,45,10.20
2013,09,18,05,46,10.20
2013,09,18,05,47,10.20
2013,09,18,05,48,10.20
2013,09,18,05,49,10.20
2013,09,18,05,50,10.20
2013,09,18,05,51,10.20
2013,09,18,05,52,10.20
2013,09,18,05,53,10.20
2013,09,18,05,54,10.20
2013,09,18,05,55,10.20
2013,09,18,05,56,10.20
2013,09,18,05,57,10.20
2013,09,18,05,58,10.20
2013,09,18,05,59,10.10
2013,09,18,06,00,10.10
2013,09,18,06,01,10.10
2013,09,18,06,02,10.10
2013,09,18,06,03,10.10
2013,09,18,06,04,10.10
2013,09,18,06,05,10.10
2013,09,18,06,06,10.10
2013,09,18,06,07,10.10
2013,09,18,06,08,10.10
2013,09,18,06,09,10.10
2013,09,18,06,10,10.10
2013,09,18,06,11,10.10
2013,09,18,06,12,10.10
2013,09,18,06,13,10.10
2013,09,18,06,14,10.10
2013,09,18,06,15,10.10
2013,09,18,06,16,10.00
2013,09,18,06,17,10.00
2013,09,18,06,18,10.00
2013,09,18,06,19,10.00
2013,09,18,06,20,10.00
2013,09,18,06,21,10.00
2013,09,18,06,22,10.00
2013,09,18,06,23,10.00
2013,09,18,06,24,10.00
2013,09,18,06,25,10.00
2013,09,18,06,26,10.00
2013,09,18,06,27,10.00
2013,09,18,06,28,9.90
2013,09,18,06,29,9.90
2013,09,18,06,30,9.90
2013,09,18,06,31,10.00
2013,09,18,06,32,9.90
2013,09,18,06,33,10.00
2013,09,18,06,34,10.00
2013,09,18,06,35,10.00
2013,09,18,06,36,10.00
2013,09,18,06,37,10.00
2013,09,18,06,38,10.00
2013,09,18,06,39,10.00
2013,09,18,06,40,9.90
2013,09,18,06,41,9.90
2013,09,18,06,42,9.90
2013,09,18,06,43,9.90
2013,09,18,06,44,9.90
2013,09,18,06,45,9.90
2013,09,18,06,46,9.90
2013,09,18,06,47,9.90
2013,09,18,06,48,9.90
2013,09,18,06,49,9.90
2013,09,18,06,50,9.90
2013,09,18,06,51,9.90
2013,09,18,06,52,9.90
2013,09,18,06,53,9.90
2013,09,18,06,54,9.90
2013,09,18,06,55,9.90
2013,09,18,06,56,9.90
2013,09,18,06,57,9.90
2013,09,18,06,58,9.90
2013,09,18,06,59,9.80
2013,09,18,07,00,9.80
2013,09,18,07,01,9.80
2013,09,18,07,02,9.80
2013,09,18,07,03,9.80
2013,09,18,07,04,9.80
2013,09,18,07,05,9.80
2013,09,18,07,06,9.80
2013,09,18,07,07,9.80
2013,09,18,07,08,9.80
2013,09,18,07,09,9.80
2013,09,18,07,10,9.80
2013,09,18,07,11,9.80
2013,09,18,07,12,9.80
2013,09,18,07,13,9.80
2013,09,18,07,14,9.80
2013,09,18,07,15,9.90
2013,09,18,07,16,9.90
2013,09,18,07,17,9.90
2013,09,18,07,18,9.80
2013,09,18,07,19,9.80
2013,09,18,07,20,9.80
2013,09,18,07,21,9.90
2013,09,18,07,22,9.80
2013,09,18,07,23,9.80
2013,09,18,07,24,9.80
2013,09,18,07,25,9.80
2013,09,18,07,26,9.80
2013,09,18,07,27,9.80
2013,09,18,07,28,9.80
2013,09,18,07,29,9.80
2013,09,18,07,30,9.80
2013,09,18,07,31,9.80
2013,09,18,07,32,9.90
2013,09,18,07,33,9.90
2013,09,18,07,34,9.90
2013,09,18,07,35,9.90
2013,09,18,07,36,9.90
2013,09,18,07,37,9.90
2013,09,18,07,38,9.90
2013,09,18,07,39,9.90
2013,09,18,07,40,9.90
2013,09,18,07,41,9.90
2013,09,18,07,42,9.90
2013,09,18,07,43,9.90
2013,09,18,07,44,9.90
2013,09,18,07,45,9.90
2013,09,18,07,46,10.00
2013,09,18,07,47,10.00
2013,09,18,07,48,10.00
2013,09,18,07,49,10.00
2013,09,18,07,50,10.00
2013,09,18,07,51,10.00
2013,09,18,07,52,10.10
2013,09,18,07,53,10.10
2013,09,18,07,54,10.10
2013,09,18,07,55,10.10
2013,09,18,07,56,10.10
2013,09,18,07,57,10.10
2013,09,18,07,58,10.10
2013,09,18,07,59,10.10
2013,09,18,08,00,10.10
2013,09,18,08,01,10.10
2013,09,18,08,02,10.10
2013,09,18,08,03,10.10
2013,09,18,08,04,10.10
2013,09,18,08,05,10.20
2013,09,18,08,06,10.20
2013,09,18,08,07,10.20
2013,09,18,08,08,10.20
2013,09,18,08,09,10.20
2013,09,18,08,10,10.20
2013,09,18,08,11,10.20
2013,09,18,08,12,10.30
2013,09,18,08,13,10.30
2013,09,18,08,14,10.30
2013,09,18,08,15,10.30
2013,09,18,08,16,10.30
2013,09,18,08,17,10.30
2013,09,18,08,18,10.30
2013,09,18,08,19,10.30
2013,09,18,08,20,10.30
2013,09,18,08,21,10.30
2013,09,18,08,22,10.40
2013,09,18,08,23,10.40
2013,09,18,08,24,10.40
2013,09,18,08,25,10.40
2013,09,18,08,26,10.40
2013,09,18,08,27,10.40
2013,09,18,08,28,10.40
2013,09,18,08,29,10.50
2013,09,18,08,30,10.50
2013,09,18,08,31,10.50
2013,09,18,08,32,10.50
2013,09,18,08,33,10.50
2013,09,18,08,34,10.60
2013,09,18,08,35,10.60
2013,09,18,08,36,10.60
2013,09,18,08,37,10.60
2013,09,18,08,38,10.60
2013,09,18,08,39,10.60
2013,09,18,08,40,10.70
2013,09,18,08,41,10.70
2013,09,18,08,42,10.70
2013,09,18,08,43,10.70
2013,09,18,08,44,10.70
2013,09,18,08,45,10.80
2013,09,18,08,46,10.80
2013,09,18,08,47,10.80
2013,09,18,08,48,10.80
2013,09,18,08,49,10.80
2013,09,18,08,50,10.90
2013,09,18,08,51,10.90
2013,09,18,08,52,10.90
2013,09,18,08,53,10.90
2013,09,18,08,54,11.00
2013,09,18,08,55,11.00
2013,09,18,08,56,11.00
2013,09,18,08,57,11.10
2013,09,18,08,58,11.10
2013,09,18,08,59,11.10
2013,09,18,09,00,11.10
2013,09,18,09,01,11.20
2013,09,18,09,02,11.20
2013,09,18,09,03,11.20
2013,09,18,09,04,11.20
2013,09,18,09,05,11.30
2013,09,18,09,06,11.30
2013,09,18,09,07,11.30
2013,09,18,09,08,11.30
2013,09,18,09,09,11.40
2013,09,18,09,10,11.40
2013,09,18,09,11,11.50
2013,09,18,09,12,11.50
2013,09,18,09,13,11.60
2013,09,18,09,14,11.60
2013,09,18,09,15,11.60
2013,09,18,09,16,11.70
2013,09,18,09,17,11.70
2013,09,18,09,18,11.70
2013,09,18,09,19,11.80
2013,09,18,09,20,11.80
2013,09,18,09,21,11.80
2013,09,18,09,22,11.80
2013,09,18,09,23,11.90
2013,09,18,09,24,11.90
2013,09,18,09,25,12.00
2013,09,18,09,26,12.00
2013,09,18,09,27,12.00
2013,09,18,09,28,12.10
2013,09,18,09,29,12.10
2013,09,18,09,30,12.10
2013,09,18,09,31,12.20
2013,09,18,09,32,12.20
2013,09,18,09,33,12.20
2013,09,18,09,34,12.30
2013,09,18,09,35,12.30
2013,09,18,09,36,12.40
2013,09,18,09,37,12.40
2013,09,18,09,38,12.50
2013,09,18,09,39,12.60
2013,09,18,09,40,12.70
2013,09,18,09,41,12.80
2013,09,18,09,42,12.90
2013,09,18,09,43,13.00
2013,09,18,09,44,13.10
2013,09,18,09,45,13.20
2013,09,18,09,46,13.30
2013,09,18,09,47,13.40
2013,09,18,09,48,13.50
2013,09,18,09,49,13.50
2013,09,18,09,50,13.60
2013,09,18,09,51,13.60
2013,09,18,09,52,13.60
2013,09,18,09,53,13.70
2013,09,18,09,54,13.70
2013,09,18,09,55,13.70
2013,09,18,09,56,13.80
2013,09,18,09,57,13.80
2013,09,18,09,58,13.90
2013,09,18,09,59,13.90
2013,09,18,10,00,13.90
2013,09,18,10,01,13.90
2013,09,18,10,02,14.00
2013,09,18,10,03,14.00
2013,09,18,10,04,14.00
2013,09,18,10,05,14.00
2013,09,18,10,06,14.00
2013,09,18,10,07,14.10
2013,09,18,10,08,14.10
2013,09,18,10,09,14.20
2013,09,18,10,10,14.20
2013,09,18,10,11,14.30
2013,09,18,10,12,14.30
2013,09,18,10,13,14.30
2013,09,18,10,14,14.30
2013,09,18,10,15,14.20
2013,09,18,10,16,14.20
2013,09,18,10,17,14.30
2013,09,18,10,18,14.40
2013,09,18,10,19,14.50
2013,09,18,10,20,14.60
2013,09,18,10,21,14.70
2013,09,18,10,22,14.80
2013,09,18,10,23,15.00
2013,09,18,10,24,14.90
2013,09,18,10,25,14.70
2013,09,18,10,26,14.70
2013,09,18,10,27,14.70
2013,09,18,10,28,14.90
2013,09,18,10,29,15.00
2013,09,18,10,30,15.00
2013,09,18,10,31,15.00
2013,09,18,10,32,15.20
2013,09,18,10,33,15.30
2013,09,18,10,34,15.40
2013,09,18,10,35,15.50
2013,09,18,10,36,15.60
2013,09,18,10,37,15.70
2013,09,18,10,38,15.70
2013,09,18,10,39,15.80
2013,09,18,10,40,15.80
2013,09,18,10,41,15.80
2013,09,18,10,42,15.80
2013,09,18,10,43,15.80
2013,09,18,10,44,15.80
2013,09,18,10,45,15.80
2013,09,18,10,46,15.80
2013,09,18,10,47,15.90
2013,09,18,10,48,16.00
2013,09,18,10,49,16.00
2013,09,18,10,50,16.10
2013,09,18,10,51,16.20
2013,09,18,10,52,16.20
2013,09,18,10,53,16.20
2013,09,18,10,54,16.30
2013,09,18,10,55,16.30
2013,09,18,10,56,16.40
2013,09,18,10,57,16.40
2013,09,18,10,58,16.50
2013,09,18,10,59,16.50
2013,09,18,11,00,16.50
2013,09,18,11,01,16.60
2013,09,18,11,02,16.60
2013,09,18,11,03,16.70
2013,09,18,11,04,16.70
2013,09,18,11,05,16.80
2013,09,18,11,06,16.80
2013,09,18,11,07,16.90
2013,09,18,11,08,16.90
2013,09,18,11,09,17.00
2013,09,18,11,10,17.00
2013,09,18,11,11,17.10
2013,09,18,11,12,17.20
2013,09,18,11,13,17.20
2013,09,18,11,14,17.20
2013,09,18,11,15,17.30
2013,09,18,11,16,17.30
2013,09,18,11,17,17.30
2013,09,18,11,18,17.30
2013,09,18,11,19,17.40
2013,09,18,11,20,17.40
2013,09,18,11,21,17.50
2013,09,18,11,22,17.60
2013,09,18,11,23,17.60
2013,09,18,11,24,17.60
2013,09,18,11,25,17.70
2013,09,18,11,26,17.70
2013,09,18,11,27,17.70
2013,09,18,11,28,17.70
2013,09,18,11,29,17.70
2013,09,18,11,30,17.70
2013,09,18,11,31,17.70
2013,09,18,11,32,17.70
2013,09,18,11,33,17.70
2013,09,18,11,34,17.80
2013,09,18,11,35,17.80
2013,09,18,11,36,17.80
2013,09,18,11,37,17.80
2013,09,18,11,38,17.80
2013,09,18,11,39,17.80
2013,09,18,11,40,17.80
2013,09,18,11,41,17.70
2013,09,18,11,42,17.70
2013,09,18,11,43,17.80
2013,09,18,11,44,17.80
2013,09,18,11,45,17.80
2013,09,18,11,46,17.80
2013,09,18,11,47,17.80
2013,09,18,11,48,17.70
2013,09,18,11,49,17.60
2013,09,18,11,50,17.50
2013,09,18,11,51,17.40
2013,09,18,11,52,17.30
2013,09,18,11,53,17.20
2013,09,18,11,54,17.10
2013,09,18,11,55,17.10
2013,09,18,11,56,17.00
2013,09,18,11,57,17.00
2013,09,18,11,58,16.90
2013,09,18,11,59,16.90
2013,09,18,12,00,16.90
2013,09,18,12,01,16.90
2013,09,18,12,02,16.90
2013,09,18,12,03,17.00
2013,09,18,12,04,17.00
2013,09,18,12,05,17.00
2013,09,18,12,06,17.10
2013,09,18,12,07,17.10
2013,09,18,12,08,17.10
2013,09,18,12,09,17.00
2013,09,18,12,10,17.10
2013,09,18,12,11,17.10
2013,09,18,12,12,17.10
2013,09,18,12,13,17.10
2013,09,18,12,14,17.20
2013,09,18,12,15,17.20
2013,09,18,12,16,17.30
2013,09,18,12,17,17.30
2013,09,18,12,18,17.30
2013,09,18,12,19,17.30
2013,09,18,12,20,17.30
2013,09,18,12,21,17.40
2013,09,18,12,22,17.30
2013,09,18,12,23,17.30
2013,09,18,12,24,17.30
2013,09,18,12,25,17.30
2013,09,18,12,26,17.30
2013,09,18,12,27,17.30
2013,09,18,12,28,17.30
2013,09,18,12,29,17.30
2013,09,18,12,30,17.40
2013,09,18,12,31,17.40
2013,09,18,12,32,17.40
2013,09,18,12,33,17.50
2013,09,18,12,34,17.60
2013,09,18,12,35,17.70
2013,09,18,12,36,17.80
2013,09,18,12,37,17.90
2013,09,18,12,38,18.00
2013,09,18,12,39,18.00
2013,09,18,12,40,18.10
2013,09,18,12,41,18.10
2013,09,18,12,42,18.20
2013,09,18,12,43,18.20
2013,09,18,12,44,18.20
2013,09,18,12,45,18.30
2013,09,18,12,46,18.30
2013,09,18,12,47,18.40
2013,09,18,12,48,18.40
2013,09,18,12,49,18.50
2013,09,18,12,50,18.60
2013,09,18,12,51,18.70
2013,09,18,12,52,18.80
2013,09,18,12,53,18.90
2013,09,18,12,54,19.00
2013,09,18,12,55,19.00
2013,09,18,12,56,19.00
2013,09,18,12,57,18.90
2013,09,18,12,58,18.90
2013,09,18,12,59,18.90
2013,09,18,13,00,18.90
2013,09,18,13,01,18.80
2013,09,18,13,02,18.90
2013,09,18,13,03,18.90
2013,09,18,13,04,19.00
2013,09,18,13,05,19.00
2013,09,18,13,06,19.10
2013,09,18,13,07,19.20
2013,09,18,13,08,19.20
2013,09,18,13,09,19.10
2013,09,18,13,10,19.10
2013,09,18,13,11,19.00
2013,09,18,13,12,18.90
2013,09,18,13,13,18.90
2013,09,18,13,14,18.80
2013,09,18,13,15,18.80
2013,09,18,13,16,18.90
2013,09,18,13,17,18.90
2013,09,18,13,18,19.00
2013,09,18,13,19,19.00
2013,09,18,13,20,19.10
2013,09,18,13,21,19.10
2013,09,18,13,22,19.10
2013,09,18,13,23,19.20
2013,09,18,13,24,19.20
2013,09,18,13,25,19.30
2013,09,18,13,26,19.40
2013,09,18,13,27,19.40
2013,09,18,13,28,19.50
2013,09,18,13,29,19.60
2013,09,18,13,30,19.60
2013,09,18,13,31,19.60
2013,09,18,13,32,19.60
2013,09,18,13,33,19.60
2013,09,18,13,34,19.50
2013,09,18,13,35,19.50
2013,09,18,13,36,19.50
2013,09,18,13,37,19.50
2013,09,18,13,38,19.50
2013,09,18,13,39,19.60
2013,09,18,13,40,19.60
2013,09,18,13,41,19.50
2013,09,18,13,42,19.50
2013,09,18,13,43,19.40
2013,09,18,13,44,19.40
2013,09,18,13,45,19.40
2013,09,18,13,46,19.50
2013,09,18,13,47,19.50
2013,09,18,13,48,19.60
2013,09,18,13,49,19.60
2013,09,18,13,50,19.70
2013,09,18,13,51,19.70
2013,09,18,13,52,19.70
2013,09,18,13,53,19.70
2013,09,18,13,54,19.70
2013,09,18,13,55,19.80
2013,09,18,13,56,19.80
2013,09,18,13,57,19.80
2013,09,18,13,58,19.80
2013,09,18,13,59,19.80
2013,09,18,14,00,19.80
2013,09,18,14,01,19.80
2013,09,18,14,02,19.80
2013,09,18,14,03,19.70
2013,09,18,14,04,19.70
2013,09,18,14,05,19.70
2013,09,18,14,06,19.70
2013,09,18,14,07,19.70
2013,09,18,14,08,19.60
2013,09,18,14,09,19.60
2013,09,18,14,10,19.60
2013,09,18,14,11,19.60
2013,09,18,14,12,19.60
2013,09,18,14,13,19.60
2013,09,18,14,14,19.60
2013,09,18,14,15,19.60
2013,09,18,14,16,19.60
2013,09,18,14,17,19.60
2013,09,18,14,18,19.60
2013,09,18,14,19,19.60
2013,09,18,14,20,19.60
2013,09,18,14,21,19.60
2013,09,18,14,22,19.60
2013,09,18,14,23,19.60
2013,09,18,14,24,19.60
2013,09,18,14,25,19.50
2013,09,18,14,26,19.50
2013,09,18,14,27,19.50
2013,09,18,14,28,19.60
2013,09,18,14,29,19.70
2013,09,18,14,30,19.70
2013,09,18,14,31,19.70
2013,09,18,14,32,19.80
2013,09,18,14,33,19.80
2013,09,18,14,34,19.80
2013,09,18,14,35,19.80
2013,09,18,14,36,19.90
2013,09,18,14,37,19.90
2013,09,18,14,38,20.00
2013,09,18,14,39,20.00
2013,09,18,14,40,20.10
2013,09,18,14,41,20.10
2013,09,18,14,42,20.20
2013,09,18,14,43,20.20
2013,09,18,14,44,20.20
2013,09,18,14,45,20.20
2013,09,18,14,46,20.20
2013,09,18,14,47,20.10
2013,09,18,14,48,20.10
2013,09,18,14,49,20.00
2013,09,18,14,50,20.00
2013,09,18,14,51,19.90
2013,09,18,14,52,19.90
2013,09,18,14,53,19.90
2013,09,18,14,54,19.90
2013,09,18,14,55,19.90
2013,09,18,14,56,19.90
2013,09,18,14,57,20.00
2013,09,18,14,58,20.00
2013,09,18,14,59,20.00
2013,09,18,15,00,20.00
2013,09,18,15,01,20.00
2013,09,18,15,02,20.10
2013,09,18,15,03,20.10
2013,09,18,15,04,20.10
2013,09,18,15,05,20.10
2013,09,18,15,06,20.20
2013,09,18,15,07,20.10
2013,09,18,15,08,20.10
2013,09,18,15,09,20.10
2013,09,18,15,10,20.10
2013,09,18,15,11,20.10
2013,09,18,15,12,20.10
2013,09,18,15,13,20.10
2013,09,18,15,14,20.10
2013,09,18,15,15,20.10
2013,09,18,15,16,20.10
2013,09,18,15,17,20.10
2013,09,18,15,18,20.20
2013,09,18,15,19,20.20
2013,09,18,15,20,20.20
2013,09,18,15,21,20.30
2013,09,18,15,22,20.30
2013,09,18,15,23,20.30
2013,09,18,15,24,20.30
2013,09,18,15,25,20.30
2013,09,18,15,26,20.30
2013,09,18,15,27,20.20
2013,09,18,15,28,20.10
2013,09,18,15,29,20.10
2013,09,18,15,30,20.00
2013,09,18,15,31,20.00
2013,09,18,15,32,20.00
2013,09,18,15,33,20.00
2013,09,18,15,34,20.00
2013,09,18,15,35,20.00
2013,09,18,15,36,20.00
2013,09,18,15,37,20.00
2013,09,18,15,38,19.90
2013,09,18,15,39,19.80
2013,09,18,15,40,19.80
2013,09,18,15,41,19.70
2013,09,18,15,42,19.60
2013,09,18,15,43,19.50
2013,09,18,15,44,19.50
2013,09,18,15,45,19.50
2013,09,18,15,46,19.40
2013,09,18,15,47,19.40
2013,09,18,15,48,19.40
2013,09,18,15,49,19.30
2013,09,18,15,50,19.30
2013,09,18,15,51,19.20
2013,09,18,15,52,19.10
2013,09,18,15,53,19.10
2013,09,18,15,54,19.10
2013,09,18,15,55,19.10
2013,09,18,15,56,19.10
2013,09,18,15,57,19.10
2013,09,18,15,58,19.10
2013,09,18,15,59,19.10
2013,09,18,16,00,19.00
2013,09,18,16,01,19.00
2013,09,18,16,02,19.00
2013,09,18,16,03,18.90
2013,09,18,16,04,18.90
2013,09,18,16,05,18.80
2013,09,18,16,06,18.70
2013,09,18,16,07,18.60
2013,09,18,16,08,18.60
2013,09,18,16,09,18.50
2013,09,18,16,10,18.50
2013,09,18,16,11,18.40
2013,09,18,16,12,18.40
2013,09,18,16,13,18.40
2013,09,18,16,14,18.30
2013,09,18,16,15,18.30
2013,09,18,16,16,18.30
2013,09,18,16,17,18.30
2013,09,18,16,18,18.30
2013,09,18,16,19,18.20
2013,09,18,16,20,18.20
2013,09,18,16,21,18.20
2013,09,18,16,22,18.10
2013,09,18,16,23,18.10
2013,09,18,16,24,18.10
2013,09,18,16,25,18.10
2013,09,18,16,26,18.00
2013,09,18,16,27,18.00
2013,09,18,16,28,18.00
2013,09,18,16,29,17.90
2013,09,18,16,30,17.90
2013,09,18,16,31,17.90
2013,09,18,16,32,17.90
2013,09,18,16,33,17.90
2013,09,18,16,34,17.90
2013,09,18,16,35,17.80
2013,09,18,16,36,17.80
2013,09,18,16,37,17.80
2013,09,18,16,38,17.80
2013,09,18,16,39,17.80
2013,09,18,16,40,17.80
2013,09,18,16,41,17.80
2013,09,18,16,42,17.80
2013,09,18,16,43,17.80
2013,09,18,16,44,17.80
2013,09,18,16,45,17.80
2013,09,18,16,46,17.80
2013,09,18,16,47,17.70
2013,09,18,16,48,17.70
2013,09,18,16,49,17.70
2013,09,18,16,50,17.70
2013,09,18,16,51,17.70
2013,09,18,16,52,17.70
2013,09,18,16,53,17.70
2013,09,18,16,54,17.70
2013,09,18,16,55,17.70
2013,09,18,16,56,17.60
2013,09,18,16,57,17.60
2013,09,18,16,58,17.60
2013,09,18,16,59,17.60
2013,09,18,17,00,17.60
2013,09,18,17,01,17.60
2013,09,18,17,02,17.60
2013,09,18,17,03,17.60
2013,09,18,17,04,17.60
2013,09,18,17,05,17.60
2013,09,18,17,06,17.60
2013,09,18,17,07,17.50
2013,09,18,17,08,17.50
2013,09,18,17,09,17.50
2013,09,18,17,10,17.50
2013,09,18,17,11,17.50
2013,09,18,17,12,17.50
2013,09,18,17,13,17.50
2013,09,18,17,14,17.50
2013,09,18,17,15,17.50
2013,09,18,17,16,17.50
2013,09,18,17,17,17.50
2013,09,18,17,18,17.50
2013,09,18,17,19,17.50
2013,09,18,17,20,17.50
2013,09,18,17,21,17.60
2013,09,18,17,22,17.60
2013,09,18,17,23,17.60
2013,09,18,17,24,17.60
2013,09,18,17,25,17.60
2013,09,18,17,26,17.50